TIANMU-1 06

Last updated on Thu Oct 30 2025 00:02:23 GMT+0000 (Coordinated Universal Time)

1 55976U 23039D 25302.49992664 .00018461 00000+0 47231-3 0 9999 2 55976 97.5105 104.1087 0003156 216.4799 143.6232 15.39474431145254
UTC large
Height (km)
Speed (km/s)
/
Latitude / Longitude
Inclination (degrees)
Orbital Period (minutes)
Azimuth
Elevation
Range (km)
Doppler Factor

Next 0 passes for location: London (51.5072 / 0.1276)

Sorry there are no passes over London.